Weather in Nyazepetrovsk

Russia / Chelyabinsk Oblast     56°03′13″N   59°36′34″E
temp.,
°C
wind,
m/s
gust,
m/s
humid.,
%
clouds,
%
prec.,
mm/h
press.,
hPa
HPBL,
m
26 september, sun
sun2623:00+10ese41241100 0.0 1016420
02:00+8se31056100 0.1 1016523
05:00+7e41272100 0.2 1016523
08:00+7e5155495 0.0 1015572
11:00+10ese71549100 0.0 1014727
14:00+10ese61261100 0.1 1015879
17:00+7ese61270100 0.8 1016865
20:00+5ese61391100 1.8 1017918
27 september, mon
mon2723:00+2e61592100 7.1 1017771
02:00+2e61480100 1.3 1017773
05:00+1e61582100 1.8 1017894
08:00+1e71684100 0.1 1018836
11:00+3e71673100 0.2 1018951
14:00+4e61562100 0.0 10191312
17:00+5ene71554100 0.0 10191445
20:00+4e71557100 0.0 10211487
28 september, tue
tue2823:00+3ene7136664 0.0 10221168
02:000ene614787 0.0 1023809
05:000ene5148375 0.0 1023870
08:00+1ene5127794 0.0 10231257
11:00+4ene6116782 0.1 10231444
14:00+5ene5958100 0.1 10241642
17:00+5ne485820 0.1 10241494
20:00+1nne310765 0.0 1026483
29 september, wed
wed2923:00−2n278984 0.0 1026152
02:00−2n279365 0.0 1026153
05:00−2n29957 0.0 1027227
08:00−1nne29915 0.0 1027300
11:00+5ne455480 0.0 10271305
14:00+6ne3549100 0.0 10271496
17:00+6nne255296 0.0 10271171
20:00+3n236592 0.0 102862
30 september, thu
thu3023:00−1n11815 0.0 102912
02:00−2nnw118428 0.0 103010
05:00−2wnw11875 0.0 103010
08:00−1w12815 0.0 103058
11:00+5wnw35565 0.0 1028751
14:00+7wnw46465 0.0 10261268
17:00+6wnw475110 0.0 10251292
20:00+1w2107786 0.0 1025230